�������l�o���
Date,Time,MP-1(��Sv/h),MP-2(��Sv/h),MP-3(��Sv/h),MP-4(��Sv/h),MP-5(��Sv/h),MP-6(��Sv/h),MP-7(��Sv/h),MP-8(��Sv/h),����,����(m/s),���J
2021/08/25,00:00,0.576,0.851,0.547,1.037,0.729,0.357,0.614,0.576,��,1.7,�L
2021/08/25,00:10,0.573,0.853,0.548,1.038,0.731,0.357,0.613,0.576,��쐼,2.6,�L
2021/08/25,00:20,0.576,0.853,0.548,1.038,0.728,0.357,0.612,0.574,��,3.4,�L
2021/08/25,00:30,0.575,0.853,0.546,1.037,0.727,0.357,0.614,0.575,��,3.4,��
2021/08/25,00:40,0.576,0.852,0.546,1.037,0.731,0.358,0.612,0.575,��,3.2,�L
2021/08/25,00:50,0.573,0.852,0.546,1.039,0.731,0.357,0.614,0.575,��쓌,1.9,��
2021/08/25,01:00,0.574,0.853,0.546,1.037,0.728,0.357,0.615,0.575,��,2.6,��
2021/08/25,01:10,0.575,0.852,0.547,1.037,0.730,0.357,0.614,0.576,��,3.1,��
2021/08/25,01:20,0.575,0.851,0.545,1.037,0.730,0.356,0.613,0.576,��,3.7,��
2021/08/25,01:30,0.576,0.852,0.547,1.038,0.731,0.356,0.613,0.576,��,4.3,�L
2021/08/25,01:40,0.574,0.852,0.544,1.037,0.729,0.357,0.612,0.575,��쓌,3.0,��
2021/08/25,01:50,0.574,0.852,0.545,1.039,0.731,0.356,0.612,0.576,�쓌,1.9,��
2021/08/25,02:00,0.575,0.854,0.547,1.040,0.731,0.356,0.614,0.576,��쓌,1.2,��
2021/08/25,02:10,0.575,0.852,0.547,1.038,0.731,0.355,0.612,0.575,��,1.1,��
2021/08/25,02:20,0.576,0.852,0.546,1.039,0.730,0.357,0.613,0.577,��,1.2,��
2021/08/25,02:30,0.577,0.853,0.547,1.037,0.730,0.357,0.613,0.577,��,2.0,��
2021/08/25,02:40,0.576,0.854,0.547,1.038,0.732,0.358,0.613,0.578,��쓌,2.8,��
2021/08/25,02:50,0.576,0.854,0.548,1.038,0.733,0.356,0.614,0.577,��쓌,2.3,��
2021/08/25,03:00,0.576,0.853,0.546,1.040,0.733,0.356,0.614,0.577,��,2.8,��
2021/08/25,03:10,0.577,0.853,0.548,1.038,0.732,0.356,0.614,0.576,��,3.6,��
2021/08/25,03:20,0.575,0.855,0.547,1.039,0.732,0.357,0.613,0.577,��,3.5,��
2021/08/25,03:30,0.576,0.854,0.548,1.040,0.732,0.358,0.614,0.577,��,2.6,��
2021/08/25,03:40,0.577,0.855,0.547,1.040,0.733,0.356,0.615,0.577,��,2.3,��
2021/08/25,03:50,0.574,0.853,0.548,1.040,0.733,0.358,0.615,0.577,��쓌,2.2,��
2021/08/25,04:00,0.577,0.856,0.548,1.039,0.731,0.357,0.616,0.577,��,2.8,��
2021/08/25,04:10,0.576,0.853,0.550,1.041,0.731,0.358,0.615,0.577,��,3.3,��
2021/08/25,04:20,0.575,0.855,0.547,1.041,0.732,0.358,0.615,0.577,��,3.8,��
2021/08/25,04:30,0.576,0.853,0.549,1.040,0.730,0.359,0.615,0.578,��,5.3,��
2021/08/25,04:40,0.578,0.853,0.549,1.040,0.731,0.357,0.615,0.577,��,5.4,��
2021/08/25,04:50,0.578,0.857,0.549,1.040,0.734,0.358,0.613,0.578,��,5.9,��
2021/08/25,05:00,0.576,0.853,0.546,1.039,0.733,0.361,0.613,0.578,��,5.1,��
2021/08/25,05:10,0.577,0.855,0.549,1.039,0.733,0.357,0.613,0.578,��쐼,5.2,��
2021/08/25,05:20,0.576,0.855,0.549,1.041,0.733,0.359,0.615,0.577,��,5.2,�L
2021/08/25,05:30,0.576,0.854,0.547,1.041,0.732,0.359,0.616,0.578,��,4.2,�L
2021/08/25,05:40,0.578,0.854,0.548,1.043,0.734,0.358,0.613,0.579,��,4.1,�L
2021/08/25,05:50,0.576,0.858,0.549,1.042,0.736,0.360,0.616,0.579,��,2.9,�L
2021/08/25,06:00,0.576,0.858,0.549,1.043,0.734,0.359,0.613,0.578,��쐼,3.1,�L
2021/08/25,06:10,0.578,0.858,0.552,1.041,0.736,0.359,0.615,0.579,��쐼,3.7,�L
2021/08/25,06:20,0.580,0.859,0.553,1.046,0.739,0.363,0.616,0.579,��쐼,3.1,�L
2021/08/25,06:30,0.583,0.857,0.557,1.046,0.739,0.366,0.617,0.580,��쐼,2.0,�L
2021/08/25,06:40,0.585,0.858,0.558,1.047,0.742,0.369,0.617,0.579,�쐼,2.2,�L
2021/08/25,06:50,0.585,0.858,0.559,1.045,0.742,0.370,0.617,0.580,��쐼,2.5,�L
2021/08/25,07:00,0.584,0.859,0.558,1.046,0.742,0.369,0.618,0.580,�쐼,2.3,�L
2021/08/25,07:10,0.586,0.859,0.557,1.043,0.740,0.368,0.617,0.579,�쐼,2.3,�L
2021/08/25,07:20,0.585,0.857,0.557,1.044,0.737,0.368,0.614,0.580,��쐼,2.8,�L
2021/08/25,07:30,0.585,0.855,0.555,1.041,0.737,0.366,0.617,0.577,��쓌,3.3,�L
2021/08/25,07:40,0.585,0.857,0.557,1.037,0.737,0.366,0.615,0.578,��쓌,1.9,�L
2021/08/25,07:50,0.585,0.855,0.557,1.039,0.736,0.367,0.613,0.579,��,2.5,�L
2021/08/25,08:00,0.586,0.857,0.560,1.040,0.737,0.368,0.615,0.578,��,4.9,�L
2021/08/25,08:10,0.589,0.857,0.561,1.038,0.736,0.370,0.615,0.578,��,4.0,�L
2021/08/25,08:20,0.589,0.858,0.559,1.038,0.735,0.369,0.614,0.579,��,2.2,�L
2021/08/25,08:30,0.588,0.857,0.556,1.034,0.733,0.367,0.613,0.576,��,1.2,�L
2021/08/25,08:40,0.593,0.857,0.562,1.038,0.737,0.368,0.613,0.577,��쓌,1.4,�L
2021/08/25,08:50,0.593,0.853,0.566,1.034,0.735,0.372,0.614,0.576,�k��,1.5,�L
2021/08/25,09:00,0.591,0.853,0.566,1.029,0.735,0.372,0.613,0.577,��쓌,2.5,�L
2021/08/25,09:10,0.593,0.853,0.565,1.028,0.735,0.375,0.613,0.576,��쓌,5.8,�L
2021/08/25,09:20,0.598,0.858,0.566,1.028,0.736,0.375,0.613,0.577,��쓌,5.9,�L
2021/08/25,09:30,0.595,0.858,0.564,1.028,0.733,0.375,0.612,0.578,��쓌,6.4,�L
2021/08/25,09:40,0.594,0.857,0.561,1.031,0.731,0.371,0.613,0.575,��쓌,5.2,�L
2021/08/25,09:50,0.591,0.856,0.557,1.027,0.731,0.371,0.613,0.575,��쓌,5.3,�L
2021/08/25,10:00,0.589,0.855,0.556,1.029,0.731,0.367,0.612,0.574,��쓌,5.7,�L
2021/08/25,10:10,0.586,0.855,0.554,1.029,0.728,0.366,0.612,0.575,��,5.7,��
2021/08/25,10:20,0.586,0.850,0.550,1.025,0.725,0.363,0.611,0.574,��쐼,5.3,�L
2021/08/25,10:30,0.582,0.850,0.548,1.026,0.724,0.362,0.611,0.573,��,4.3,�L
2021/08/25,10:40,0.579,0.847,0.547,1.024,0.723,0.359,0.613,0.572,��,4.4,�L
2021/08/25,10:50,0.578,0.845,0.546,1.024,0.721,0.359,0.609,0.571,��쐼,3.7,�L
2021/08/25,11:00,0.574,0.845,0.545,1.026,0.723,0.358,0.610,0.571,��쐼,4.2,��
2021/08/25,11:10,0.575,0.843,0.544,1.025,0.720,0.358,0.608,0.572,��,3.6,�L
2021/08/25,11:20,0.574,0.844,0.544,1.023,0.719,0.356,0.608,0.572,��쓌,4.4,�L
2021/08/25,11:30,0.574,0.846,0.544,1.025,0.720,0.356,0.609,0.571,��,5.2,�L
2021/08/25,11:40,0.574,0.847,0.543,1.024,0.720,0.355,0.609,0.572,��,5.3,��
2021/08/25,11:50,0.575,0.847,0.544,1.025,0.721,0.355,0.610,0.572,��,5.9,��
2021/08/25,12:00,0.575,0.846,0.543,1.025,0.722,0.356,0.610,0.571,��,5.3,��
2021/08/25,12:10,0.574,0.848,0.545,1.026,0.721,0.357,0.610,0.572,��,3.9,��
2021/08/25,12:20,0.574,0.849,0.544,1.027,0.723,0.355,0.610,0.573,��쓌,2.0,��
2021/08/25,12:30,0.575,0.849,0.543,1.026,0.724,0.356,0.611,0.572,��쓌,3.7,��
2021/08/25,12:40,0.576,0.851,0.543,1.028,0.724,0.356,0.611,0.572,��쓌,4.0,��
2021/08/25,12:50,0.576,0.850,0.545,1.027,0.725,0.357,0.611,0.572,��쓌,4.6,��
2021/08/25,13:00,0.576,0.851,0.545,1.027,0.725,0.357,0.614,0.574,��,4.1,��
2021/08/25,13:10,0.575,0.851,0.545,1.027,0.724,0.358,0.614,0.573,��,3.6,��
2021/08/25,13:20,0.576,0.849,0.546,1.030,0.725,0.357,0.614,0.575,��,3.8,��
2021/08/25,13:30,0.578,0.852,0.546,1.030,0.725,0.358,0.614,0.574,��,4.2,��
2021/08/25,13:40,0.577,0.852,0.546,1.029,0.726,0.357,0.612,0.573,��,3.4,��
2021/08/25,13:50,0.578,0.853,0.547,1.032,0.728,0.356,0.614,0.576,��,3.0,��
2021/08/25,14:00,0.577,0.853,0.548,1.030,0.726,0.358,0.614,0.575,��,4.7,��
2021/08/25,14:10,0.578,0.854,0.549,1.033,0.729,0.358,0.614,0.575,��,4.7,��
2021/08/25,14:20,0.580,0.853,0.548,1.034,0.729,0.358,0.614,0.576,��,4.1,��
2021/08/25,14:30,0.579,0.852,0.547,1.031,0.728,0.358,0.616,0.574,��,4.0,��
2021/08/25,14:40,0.577,0.853,0.549,1.033,0.729,0.359,0.616,0.575,��쐼,3.3,��
2021/08/25,14:50,0.579,0.854,0.549,1.034,0.728,0.357,0.615,0.577,��쐼,2.3,��
2021/08/25,15:00,0.581,0.854,0.548,1.033,0.728,0.359,0.615,0.576,��쐼,2.3,��
2021/08/25,15:10,0.578,0.856,0.548,1.034,0.729,0.358,0.616,0.575,��쐼,3.9,��
2021/08/25,15:20,0.577,0.853,0.547,1.035,0.730,0.356,0.615,0.576,��,4.3,��
2021/08/25,15:30,0.581,0.856,0.548,1.036,0.733,0.357,0.614,0.576,�쐼,3.8,��
2021/08/25,15:40,0.581,0.858,0.549,1.038,0.734,0.356,0.615,0.575,�쐼,3.2,��
2021/08/25,15:50,0.582,0.858,0.547,1.036,0.732,0.358,0.615,0.576,���쐼,1.9,��
2021/08/25,16:00,0.579,0.860,0.547,1.036,0.732,0.359,0.614,0.576,�쐼,0.9,��
2021/08/25,16:10,0.581,0.857,0.548,1.038,0.733,0.359,0.614,0.575,��쐼,1.5,��
2021/08/25,16:20,0.581,0.858,0.550,1.036,0.732,0.359,0.615,0.575,���쐼,2.3,��
2021/08/25,16:30,0.581,0.858,0.551,1.034,0.731,0.359,0.616,0.575,���쐼,3.5,��
2021/08/25,16:40,0.580,0.857,0.552,1.038,0.733,0.358,0.615,0.575,���쐼,3.7,��
2021/08/25,16:50,0.582,0.857,0.551,1.036,0.732,0.359,0.615,0.576,��,4.5,��
2021/08/25,17:00,0.581,0.858,0.550,1.037,0.732,0.359,0.616,0.574,��,2.3,��
2021/08/25,17:10,0.580,0.855,0.551,1.038,0.732,0.359,0.616,0.575,��,2.6,��
2021/08/25,17:20,0.582,0.857,0.551,1.037,0.732,0.359,0.617,0.575,��,3.3,��
2021/08/25,17:30,0.580,0.857,0.549,1.040,0.731,0.360,0.618,0.576,��,2.9,��
2021/08/25,17:40,0.582,0.858,0.551,1.042,0.732,0.360,0.615,0.575,���쐼,2.9,��
2021/08/25,17:50,0.580,0.857,0.550,1.039,0.733,0.359,0.616,0.576,���쐼,1.9,��
2021/08/25,18:00,0.581,0.856,0.552,1.036,0.732,0.359,0.616,0.578,�쐼,1.5,��
2021/08/25,18:10,0.579,0.858,0.549,1.040,0.732,0.359,0.615,0.576,�쐼,1.7,��
2021/08/25,18:20,0.582,0.856,0.551,1.040,0.733,0.359,0.617,0.577,���쐼,2.8,��
2021/08/25,18:30,0.581,0.858,0.551,1.039,0.734,0.360,0.617,0.577,���쐼,3.9,��
2021/08/25,18:40,0.581,0.858,0.552,1.038,0.732,0.359,0.615,0.578,���쐼,4.3,��
2021/08/25,18:50,0.582,0.859,0.551,1.040,0.733,0.359,0.615,0.576,��,3.8,��
2021/08/25,19:00,0.582,0.858,0.551,1.041,0.733,0.359,0.616,0.577,��,4.1,��
2021/08/25,19:10,0.581,0.858,0.549,1.040,0.733,0.358,0.616,0.577,���쐼,4.2,��
2021/08/25,19:20,0.582,0.858,0.552,1.041,0.735,0.360,0.616,0.577,���쐼,3.8,��
2021/08/25,19:30,0.580,0.860,0.550,1.040,0.734,0.359,0.616,0.578,��,5.6,��
2021/08/25,19:40,0.580,0.858,0.552,1.042,0.735,0.360,0.616,0.577,��,5.2,��
2021/08/25,19:50,0.581,0.858,0.551,1.041,0.736,0.361,0.617,0.577,��,5.0,��
2021/08/25,20:00,0.582,0.860,0.552,1.040,0.734,0.360,0.616,0.579,��,4.0,��
2021/08/25,20:10,0.583,0.860,0.552,1.040,0.734,0.359,0.616,0.578,���k��,3.6,��
2021/08/25,20:20,0.581,0.860,0.550,1.040,0.735,0.360,0.616,0.579,��,2.5,��
2021/08/25,20:30,0.583,0.862,0.552,1.040,0.735,0.361,0.616,0.578,��,2.3,��
2021/08/25,20:40,0.583,0.860,0.551,1.041,0.736,0.360,0.616,0.579,��,2.8,��
2021/08/25,20:50,0.582,0.859,0.551,1.040,0.735,0.360,0.618,0.577,���k��,2.3,��
2021/08/25,21:00,0.581,0.861,0.551,1.042,0.736,0.360,0.619,0.579,��,1.9,��
2021/08/25,21:10,0.582,0.860,0.551,1.041,0.736,0.360,0.618,0.578,���쐼,0.8,��
2021/08/25,21:20,0.582,0.860,0.551,1.042,0.736,0.360,0.617,0.580,-,CALM,��
2021/08/25,21:30,0.582,0.860,0.553,1.041,0.736,0.360,0.617,0.578,�k��,1.2,��
2021/08/25,21:40,0.582,0.861,0.553,1.040,0.736,0.359,0.617,0.579,��,1.2,��
2021/08/25,21:50,0.582,0.860,0.551,1.042,0.736,0.361,0.616,0.577,���쐼,3.5,��
2021/08/25,22:00,0.582,0.860,0.551,1.042,0.736,0.360,0.616,0.579,���쐼,3.4,��
2021/08/25,22:10,0.582,0.860,0.552,1.043,0.736,0.361,0.617,0.578,���쐼,4.9,��
2021/08/25,22:20,0.583,0.860,0.552,1.044,0.736,0.359,0.615,0.577,���쐼,3.7,��
2021/08/25,22:30,0.581,0.860,0.551,1.045,0.736,0.360,0.618,0.579,��,1.1,��
2021/08/25,22:40,0.581,0.860,0.552,1.043,0.738,0.361,0.618,0.579,��,4.0,��
2021/08/25,22:50,0.582,0.859,0.552,1.042,0.736,0.360,0.618,0.578,���k��,2.2,��
2021/08/25,23:00,0.584,0.859,0.551,1.043,0.736,0.361,0.619,0.577,�k��,4.8,��
2021/08/25,23:10,0.581,0.863,0.553,1.045,0.735,0.361,0.618,0.577,�k��,4.7,��
2021/08/25,23:20,0.582,0.861,0.552,1.042,0.736,0.360,0.616,0.579,�k��,3.0,��
2021/08/25,23:30,0.583,0.861,0.551,1.043,0.737,0.360,0.618,0.579,�k��,2.2,��
2021/08/25,23:40,0.581,0.862,0.552,1.042,0.736,0.360,0.618,0.580,���k��,2.2,��
2021/08/25,23:50,0.583,0.862,0.552,1.043,0.736,0.360,0.617,0.580,�k��,1.5,��
